User: anonymous   Login
Location: Caltech
(34.1382°N, 118.1253°W)
Time: 07:08:29
(UTC-07:00)
Language:

Cosmos 2084 - Orbit

View from above orbital plane
View from above orbital plane
View from above satellite
View from above satellite

Ground track
Ground track

The orbit data is extracted from the following two-line orbital elements,

1 20663U 90055A   17263.55789144 +.00000126 +00000-0 +28344-4 0  9992
2 20663 062.7909 269.7982 0139270 099.3710 262.3161 14.91656251474024
Epoch (UTC): 20 September 2017 13:23:21
Eccentricity: 0.0139270
inclination: 62.7909°
perigee height: 495 km
apogee height: 690 km
right ascension of ascending node: 269.7982°
argument of perigee: 99.3710°
revolutions per day: 14.91656251
mean anomaly at epoch: 262.3161°
orbit number at epoch: 47402

The dashed part of the orbit path shows where the satellite is in the earth's shadow,  

DLR